STARLINK-30294 (57651 NORAD) Tracking and Keplerian Element Data

This shows tracking and keplerian element data for the satellite.

Feedback or suggestion? Click here.




ElementValue
Catalog57651
NameSTARLINK-30294
Epoch Orbit273
Epoch Day238.91667824
Epoch Year2023
RAAN95.9223
Inclination43.0014
Eccentricity0.00012
Argument of Perigee246.0119
Mean Anonmoly179.9497
Mean Motion15.86105345
Decay Rate-0.00895673
L11 57651U 23122V 23238.91667824 -.00895673 00000+0 -38685-2 0 9996
L22 57651 43.0014 95.9223 0001200 246.0119 179.9497 15.86105345 2730



Live tracking and technical data element details for STARLINK-30294 (NORAD 57651). STARLINK-30294 can be tracked NOW for your location showing map with azimuth and elevation plus other details from your city location.







IsCatalogInMostPopularTable: catalog: 57651, numindb: 12
Update: records affected: 1



GetName: 57651 STARLINK-30294

Hit Count: updated at: Tue, 26 Sep 2023 13:53:41 GMT